Regional Weather Roundup
Issued by NWS Wakefield, VA

Home | Current Version | Previous Version | Graphics & Text | Print | Product List | Glossary On
Versions: 1 2 3 4 5 6 7 8 9 10 11 12 13 14 15 16 17 18 19 20 21 22 23 24 25 26 27 28
000
ASUS41 KAKQ 152010
RWRAKQ

REGIONAL WEATHER ROUNDUP
NATIONAL WEATHER SERVICE WAKEFIELD VA
400 PM EDT TUE APR 15 2014

Note: "fair" indicates few or no clouds below 12,000 feet with no
significant weather and/or obstructions to visibility. * = Denotes
station may not report precipitation (e.g., rain,snow,etc.),
thunder or fog.

VAZ042-051-052>054-056-152100-
NORTHERN VIRGINIA

CITY           SKY/WX    TMP DP  RH WIND       PRES   REMARKS
WASH NATIONAL  LGT RAIN  49  43  80 NW17G26   29.70R
DULLES         LGT RAIN  45  40  82 NW20G31   29.71R
FORT BELVOIR   LGT RAIN  48  43  81 NW14G24   29.71R
QUANTICO       LGT RAIN  49  44  83 N18G32    29.70R
FREDERICKSBRG* RAIN      52  52 100 NW10G22   29.66R
STAFFORD*      HVY RAIN  51  51 100 N16       29.72R
WARRENTON      HVY RAIN  49  49  99 N9G22     29.69R
CULPEPER*      LGT RAIN  52  52 100 N17G23    29.68R
MANASSAS*      LGT RAIN  46  46 100 N16G23    29.70R
LEESBURG*      HVY RAIN  45  45 100 N15G29    29.73
WINCHESTER     CLOUDY    45  36  70 NW20G25   29.77R
$$

VAZ048-049-060>072-079>083-152100-
CENTRAL AND SOUTH CENTRAL VIRGINIA...AND NORTH CENTRAL NORTH CAROLINA

CITY           SKY/WX    TMP DP  RH WIND       PRES   REMARKS
RICHMOND       CLOUDY    74  60  61 S22G28    29.58F
CHESTERFIELD*  CLOUDY    72  55  56 SW13G23   29.59F
HANOVER        CLOUDY    72  59  63 S10       29.59F
TAPPAHANNOCK*  CLOUDY    73  59  61 S7        29.59F
CHARLOTTSVILLE RAIN      51  45  79 NW10G23   29.66R
ORANGE*        HVY RAIN  52  48  87 N15       29.68R
LOUISA*        HVY RAIN  55  54  94 N7G17     29.64R
FARMVILLE*     DRIZZLE   57  55  94 W8        29.61R
SOUTH HILL*    DRIZZLE   68  66  94 S12       29.65F
ROANOKE RAPIDS NOT AVBL
RALEIGH        CLOUDY    69  62  78 S14G24    29.60F
$$

VAZ088>098-152100-
SOUTHEAST VIRGINIA

CITY           SKY/WX    TMP DP  RH WIND       PRES   REMARKS
NORFOLK        HVY RAIN  68  65  90 SW20G28   29.62F VSB 3/4
VIRGINIA BEACH LGT RAIN  75  66  73 S14G21    29.63F
NORFOLK NAVAL  CLOUDY    71  67  87 SW8       29.64F
WEST POINT*    CLOUDY    73  60  63 S10G17    29.61F
NEWPORT NEWS   CLOUDY    74  66  76 S8        29.62F
LANGLEY AFB    LGT RAIN  70  68  94 S18G28    29.62F FOG
FORT EUSTIS    CLOUDY    71  67  87 S3        29.60F
WILLIAMSBURG*  CLOUDY    72  64  78 S5        29.62F
FRANKLIN*      CLOUDY    72 N/A N/A S7        29.62F
WAKEFIELD      CLOUDY    71  65  81 S6        29.61F
$$

VAZ020-022-025-037-045-152100-
WESTERN AND SOUTHWEST VIRGINIA

CITY           SKY/WX    TMP DP  RH WIND       PRES   REMARKS
STAUNTON*      RAIN      45  40  81 NW9       29.76R
HOT SPRINGS VA SNOW      30  30 100 W23G30    29.75S VSB<1/4 WCI  17
LYNCHBURG      LGT RAIN  51  44  77 VRB6      29.69S
DANVILLE       LGT RAIN  50  45  83 NW15G26   29.68R
MARTINSVILLE   LGT RAIN  45  42  88 N17G25    29.74R
ROANOKE        LGT RAIN  43  35  73 NW15G26   29.79R
BLACKSBURG     LGT SNOW  37  36  93 NW13G22   29.84R
DUBLIN*        LGT SNOW  35  33  91 NW8       29.85R
MARION*        CLOUDY    35  29  80 NW14G30   29.87S
HILLSVILLE*    CLOUDY    36  28  75 NW21G29   29.82F WCI  24
RICHLANDS*     LGT SNOW  33  31  90 NW10G22   29.91F
WISE*          LGT SNOW  32  32 100 NW13      29.94F WCI  22
ABINGDON*      CLOUDY    37  31  79 NW15G22   29.93R
$$

MDZ021>025-VAZ099-100-152100-
SOUTHERN MARYLAND AND THE DELMARVA PENINSULA

CITY           SKY/WX    TMP DP  RH WIND       PRES   REMARKS
PATUXENT RIVER CLOUDY    69  60  73 S10       29.59F
BAY BRIDGE APT CLOUDY    54  50  87 NW13      29.65R
LEONARDTOWN    CLOUDY    68  61  77 S5        29.61F
DOVER          NOT AVBL
GEORGETOWN     LGT RAIN  67  63  87 S16G23    29.62F
EASTON         RAIN      59  55  88 NW13G23   29.66
CAMBRIDGE      CLOUDY    66  61  82 S15G22    29.59F
SALISBURY      RAIN      68  63  84 S9        29.64S
OCEAN CITY     CLOUDY    62  60  93 SW14G22   29.65F FOG
WALLOPS ISLAND FOG       61  59  93 SW15G24   29.66F VSB 1/2
ACCOMACK*      CLOUDY    72  66  83 S8        29.66R
$$

NCZ012>017-030>032-152100-
EASTERN NORTH CAROLINA

CITY           SKY/WX    TMP DP  RH WIND       PRES   REMARKS
ELIZABETH CITY CLOUDY    73  65  75 S9        29.67F
AHOSKIE*       CLOUDY    73  63  72 S10       29.63F
EDENTON*       CLOUDY    73  66  78 S14       29.67F
CURRITUCK*     CLOUDY    75  63  67 S8        29.68S
KILL DEVIL HLS CLOUDY    70  65  85 S9G16     29.69F
MANTEO         CLOUDY    70  64  82 SW20      29.72F
CAPE HATTERAS  CLOUDY    68  65  90 SW13      29.76F FOG
GOLDSBORO      CLOUDY    74  65  73 S17G23    29.62F
WASHINGTON     CLOUDY    74  66  77 S15G22    29.69F
GREENVILLE     CLOUDY    73  63  68 S20G28    29.69F
NEW BERN       LGT RAIN  75  63  66 SW14G24   29.72F
WILMINGTON     LGT RAIN  71  64  78 S18G26    29.72F
$$

VAZ048-152100-
ELSEWHERE

CITY           SKY/WX    TMP DP  RH WIND       PRES   REMARKS
HARRISBURG PA  RAIN      46  41  82 NW13G24   29.72R
BALTIMORE      LGT RAIN  49  45  86 NW13G26   29.67R FOG
ANNAPOLIS      LGT RAIN  52  48  86 W9G21     29.66R
ANDREWS AFB    LGT RAIN  47  44  88 NW23G36   29.68R
WILMINGTON DE  LGT RAIN  54  50  86 NW21G32   29.61R FOG
PHILADELPHIA   LGT RAIN  66  57  72 W23G33    29.58R
WILDWOOD NJ*   CLOUDY    61  55  82 S18G26    29.63F
ATLANTIC CITY  CLOUDY    60  58  92 S20G36    29.60F
HENDERSON NC   CLOUDY    68  64  86 S14G20    29.60F
GREENSBORO     RAIN      49  45  86 NW14G21   29.68R FOG
ROCKY MOUNT      N/A    N/A N/A N/A MISG      29.63F
FAYETTEVILLE   CLOUDY    69  66  90 S8        29.62F
CHARLOTTE      RAIN      51  49  92 NW13G24   29.69R FOG
$$

VAZ100-152100-
MARINE

STATION/POSITION TIME  TEMP    WIND        PRES    WAVE   SWELL
                       AIR SEA DIR/SP/G            HT/PER HT/PER
                 (UTC) (F)     (DEG/KT/KT) (MB)    (FT/S) (FT/S)
44066 TX TWR #4  2000   54 46  180/ 23/ 27 1004.7F  11/ 9   7/ 9
CAPE MAY NJ      2000   58 56  170/ 17/ 23 1002.4F
LEWES DE         2000   68 49  200/ 12/ 21 1002.2R
15NM E FENWICK I 2000   55 46              1003.7F   9/ 9
OCEAN-CITY-INLET 2000   54 51  220/ 16/ 19 1003.9S
WACHAPREAGUE VA  2000   63 65  190/ 12/ 15 1003.6F
THOMAS POINT MD  2000   52 53  310/ 22/ 24 1004.4R
GOOSES REEF MD   2000   53     360/ 16/ 23 1003.8R
COVE POINT MD    2000   54     180/ 16/ 18 1002.3R
SOLOMONS ISLAND  2000      53                N/A
BISHOPS HEAD MD  2000   63 60  170/ 17/ 20 1002.6F
PINEY POINT MD   2000          210/ 12/ 13   N/A
POTOMAC MD       2000   57     170/  8/ 12 1002.0F
CAMBRIDGE MD     2000   66 57  180/ 10/ 16 1001.6F
LEWISETTA VA     1900   70 57  220/ 12/ 16 1002.1F
RAPPAHANNOCK LGT 2000          180/ 15/ 16 1004.2R
STINGRAY PT      2000   58     180/ 12/ 14 1003.7F
YORK RVR RNG VA  2000   68     210/ 11/ 12 1002.8F
YORKTOWN VA      2000   70 57  210/  6/  8 1003.0F
JAMESTOWN VA     2000   69     220/  8/ 12   N/A
DOMINION TERM VA 2000   69     190/ 12/ 14 1003.5F
KIPTOPEKE VA     2000      58  160/ 13/ 21   N/A
CHES BAY BRIDGE  2000   71 55  230/  8/ 10 1003.6F
CAPE HENRY VA    2000   71     180/  7/ 11   N/A
CHESAPEAKE LGHT  1900   58     170/ 26/ 27 1004.7F
WILLOUBY STN VA  2000   70     200/ 15/ 17 1002.7F
S CRANEY ISL VA  2000          200/  9/ 14 1003.7S
CAPE HENRY BUOY  2000      48                N/A     5/ 8
1ST LANDING BUOY 2000      53                N/A     5/ 9   3/ 9
64NM E OF VA BCH 2000   61 52  170/ 17/ 21 1006.1F  11/ 9   7/ 9
DUCK PIER NC     2000   69 48  180/ 18/ 25 1004.6F
44100 DUCK FRF   2000      49                N/A     6/ 8   2/11
44056 DUCK FRF   2000      47                N/A     5/ 8
OREGON INLET NC  2000   69 70  180/ 20/ 25 1006.7F
HATTERAS NC      2000   69 65  180/  5/ 11 1007.7F
CAPE LOOKOUT NC  1900   69     200/ 12/ 13 1008.0F
FRYING PAN SHLS  2000   67 66  210/ 16/ 19 1007.9F   7/ 8   3/ 8
$$



USA.gov is the U.S. government's official web portal to all federal, state and local government web resources and services.